RH
7 8 8 8 8 8 9 8 8 8 8 7 7 7 7 6 6 6 5 5 5 5 6 6 7 9 11 12 13 16 14 13 12 12 9 4 4 5 12 19 14 11 11 10 8 15 20 20 32 42 47 45 38 36 33 30 28 30 47 56 45 40 43 33 26 30 25 16 15 15 17 18 21 22 24 26 27 32 35 36 42 44 49 58 63 66 68 69
8 8 7 8 8 8 8 9 9 9 9 9 9 8 8 8 7 7 6 6 6 5 5 5 5 5 6 7 8 12 14 14 13 11 7 4 4 4 12 18 16 14 14 11 9 20 25 23 34 41 43 42 35 32 31 29 25 32 49 50 40 34 28 24 26 27 23 20 15 15 17 16 17 18 21 23 25 28 29 33 41 47 52 57 61 64 67 68
8 8 8 8 7 7 8 8 8 8 8 8 9 9 9 9 9 8 8 7 7 6 6 6 6 5 5 5 5 8 11 13 11 10 8 6 3 4 9 13 15 14 15 12 8 24 34 29 34 39 40 39 33 29 28 26 22 27 41 47 39 28 25 22 23 25 22 19 16 15 15 15 15 16 19 20 24 26 28 38 47 52 55 57 59 62 65 67
8 8 8 8 8 7 7 7 7 7 7 8 8 8 9 9 9 9 9 8 8 8 7 7 6 6 6 5 5 5 8 13 14 15 13 8 4 5 8 10 14 12 11 10 6 22 36 32 32 35 36 34 31 27 23 21 20 23 30 37 32 23 25 21 19 22 20 18 17 14 14 15 14 16 18 19 26 26 30 43 49 53 55 56 58 60 63 64
8 8 8 8 8 8 7 7 7 7 7 7 7 7 8 8 9 9 9 9 9 8 8 8 7 6 6 6 6 5 8 16 19 17 14 11 9 9 12 12 14 11 8 7 7 19 29 29 28 29 31 30 26 23 19 16 16 21 23 24 21 19 22 18 16 20 19 18 17 15 14 15 13 14 15 19 26 26 32 44 47 51 55 56 57 59 61 62
7 7 7 7 7 7 7 8 7 8 7 7 7 7 7 7 8 8 9 9 9 9 9 9 8 7 7 6 6 5 9 15 15 16 15 13 12 12 13 11 10 9 8 7 7 17 24 24 24 24 25 23 21 19 16 14 13 18 19 18 17 16 16 14 14 17 19 18 19 17 14 14 13 13 13 16 21 24 33 43 46 50 54 55 57 59 60 61
6 6 6 6 7 7 7 8 7 8 8 7 8 7 7 7 7 8 8 9 9 8 9 8 8 8 7 7 7 6 12 13 8 12 13 13 13 13 13 11 9 8 8 8 7 16 24 23 23 21 20 19 18 16 14 13 12 14 15 16 17 15 13 14 13 14 16 17 19 18 15 15 13 13 15 16 20 27 38 44 47 51 52 55 56 58 60 61
6 5 5 6 6 6 6 7 7 7 7 7 8 8 8 7 7 7 7 8 8 8 8 8 9 8 8 8 6 8 14 13 6 9 12 13 13 12 13 11 9 8 8 8 7 18 27 24 22 20 18 17 15 15 14 13 12 12 12 12 14 13 12 13 13 13 14 15 18 19 17 16 13 14 16 18 25 34 41 44 49 51 52 54 55 58 60 62
6 6 5 6 5 5 6 6 6 6 7 7 7 7 8 7 7 7 7 8 7 8 7 8 8 8 8 6 8 15 14 8 9 14 15 15 14 12 13 12 11 8 7 7 7 19 29 26 22 19 16 14 13 13 13 13 13 11 10 9 9 11 12 13 13 12 12 14 17 18 16 15 14 15 16 20 28 35 41 45 49 51 52 53 54 57 59 61
8 7 6 6 5 5 5 5 6 5 6 6 6 7 7 7 7 7 7 7 7 7 7 8 8 8 9 7 15 23 12 7 14 17 15 14 14 14 13 12 12 9 7 7 7 18 28 25 20 17 14 12 11 11 11 13 13 10 9 8 7 8 9 11 12 12 11 13 15 17 16 15 15 16 16 22 29 33 40 45 48 49 51 52 53 55 57 59
10 8 7 6 6 5 5 5 5 5 6 5 6 6 6 7 7 7 7 8 7 7 7 7 6 8 8 8 20 23 8 6 15 16 14 14 15 16 14 12 13 13 9 8 9 16 25 23 18 15 13 11 10 10 10 11 12 10 9 8 8 7 7 10 11 11 10 12 15 15 16 16 16 17 16 22 28 30 38 43 44 47 49 49 50 53 55 56
13 10 9 7 7 6 6 6 6 6 6 5 6 5 6 6 6 7 7 7 7 7 7 7 7 7 7 12 17 14 6 7 11 13 14 17 19 18 17 14 15 17 13 12 13 15 20 20 17 14 12 11 10 10 10 10 10 9 9 8 8 7 7 9 9 9 9 12 14 14 20 20 17 17 15 19 25 28 35 39 41 44 47 47 48 52 53 52
15 13 11 9 8 8 7 7 7 7 7 7 6 5 6 5 6 7 7 8 7 7 6 6 7 5 13 21 14 7 8 8 7 9 12 16 18 16 17 17 16 19 16 14 15 14 16 15 15 13 12 11 10 10 9 8 9 9 8 9 9 9 9 8 8 9 9 11 12 16 28 28 18 16 14 15 22 27 32 35 37 40 43 45 47 50 51 49
19 17 14 11 10 9 9 9 8 8 7 8 7 6 5 5 6 6 6 7 6 7 6 6 8 8 19 22 9 8 10 8 9 8 10 12 12 13 14 15 14 17 18 16 15 15 14 13 12 12 11 10 8 8 7 6 8 8 9 9 9 11 12 8 8 10 9 11 10 15 31 30 19 17 15 14 20 26 29 32 35 37 39 41 44 49 48 46
24 21 18 15 12 11 11 10 9 9 7 8 8 6 5 5 6 5 7 8 6 7 6 7 9 14 31 28 9 11 13 12 12 7 9 12 11 12 12 13 13 13 15 16 16 15 14 13 12 10 9 8 7 7 8 8 7 7 10 12 11 11 12 8 7 9 9 10 9 15 29 28 19 17 15 15 18 23 27 30 32 34 36 37 41 47 46 43
29 26 24 19 15 14 14 12 11 9 8 9 8 7 6 4 5 5 6 5 6 8 5 12 21 25 40 35 15 15 18 16 13 7 9 12 12 12 11 12 11 11 11 12 13 13 13 13 11 9 8 7 7 8 9 10 10 9 10 13 12 10 11 9 8 9 9 11 10 15 26 26 21 19 16 15 16 20 23 25 27 31 34 34 38 44 43 41
32 30 27 24 19 16 16 14 11 9 9 8 8 8 4 5 8 9 11 11 9 8 7 19 38 44 37 26 18 17 15 15 15 11 10 11 13 11 10 11 10 10 10 10 11 11 11 12 12 11 9 8 8 8 12 14 14 12 11 12 11 10 11 10 11 10 9 12 12 14 22 24 21 19 17 16 16 18 20 21 24 27 31 31 36 41 41 40
34 32 30 27 24 19 17 16 12 10 9 8 8 6 6 12 16 19 26 26 21 21 23 27 42 50 33 19 19 16 12 13 14 14 13 12 12 11 11 10 9 9 9 10 11 10 11 11 11 12 11 10 9 9 13 14 13 12 12 12 10 10 10 10 12 11 10 13 14 15 19 21 20 18 18 18 16 18 19 20 22 24 28 29 32 38 38 39
35 34 32 29 26 23 19 16 13 9 8 8 7 5 12 17 18 27 33 33 37 43 42 37 38 36 20 13 16 12 13 14 12 13 13 12 12 11 11 10 9 9 10 12 11 10 11 11 12 14 14 12 10 9 10 10 10 10 10 10 10 10 10 9 10 10 10 13 14 15 18 19 19 18 18 18 17 18 19 20 20 22 26 27 30 35 36 38
35 34 34 31 28 24 20 18 13 8 8 8 7 12 21 18 17 29 31 28 35 38 32 30 30 24 15 15 15 12 15 13 10 13 12 11 11 11 10 10 10 11 12 13 12 10 10 13 15 14 13 11 9 8 8 8 8 9 9 9 9 10 10 8 9 10 10 13 15 16 17 17 19 19 18 19 18 19 21 20 20 22 26 26 27 33 36 37
35 34 34 31 29 25 22 18 12 9 11 10 12 21 26 20 17 22 22 21 21 19 17 16 18 23 24 24 20 19 20 14 11 12 11 11 10 10 10 10 11 14 13 11 11 10 11 14 15 12 11 9 8 8 7 7 8 8 9 10 10 10 9 8 9 11 10 13 17 17 17 18 19 20 18 18 20 20 21 22 21 22 25 26 25 30 35 36
34 34 32 32 30 25 22 18 13 13 13 13 18 22 21 20 21 19 19 21 17 15 15 11 10 14 18 20 19 20 21 17 13 11 11 12 11 10 10 9 13 15 13 11 11 12 13 14 12 9 9 8 7 7 7 7 7 8 9 10 11 10 9 9 9 10 10 14 18 17 18 19 19 19 19 19 21 20 20 22 22 21 24 27 25 27 32 36
32 32 31 30 29 26 23 18 15 17 13 12 18 19 18 19 19 19 19 20 17 13 11 10 10 9 8 11 11 13 15 15 14 12 11 12 11 10 9 10 13 13 12 12 12 14 15 13 10 8 8 7 7 6 7 7 7 8 9 10 12 9 9 11 10 9 10 13 16 17 19 20 19 20 22 19 20 21 20 20 21 21 23 25 26 25 29 34
28 28 29 28 28 27 23 17 19 22 15 13 18 20 21 20 17 18 19 19 17 14 10 8 8 7 7 6 6 7 10 11 12 11 10 11 10 9 9 10 11 12 12 11 11 12 12 10 8 8 7 7 7 7 7 7 8 8 8 9 10 8 9 10 10 9 10 12 13 17 22 23 21 23 25 21 21 22 21 20 21 22 22 23 25 25 26 30
25 25 25 26 27 26 23 21 26 26 17 17 23 22 21 20 18 18 19 22 21 15 12 10 8 7 6 5 6 6 7 8 10 10 10 10 10 9 9 9 10 12 11 10 11 11 10 8 7 8 7 7 7 7 6 6 7 8 8 8 8 8 8 8 8 9 13 17 14 15 27 31 25 25 28 24 24 25 22 22 22 23 24 24 25 25 25 27
24 23 23 24 24 25 23 22 26 22 13 17 24 23 21 21 19 16 20 28 27 17 12 11 9 7 6 7 7 6 7 7 8 9 9 10 10 9 8 8 9 11 10 9 10 10 9 7 6 7 7 6 7 7 6 5 6 7 7 7 7 7 8 8 8 9 17 23 16 13 28 37 29 26 28 26 26 27 24 24 23 23 25 24 26 26 26 26
22 21 22 22 21 23 24 22 23 18 14 18 20 19 19 17 16 16 25 36 30 17 11 10 8 6 6 7 6 6 8 7 6 8 7 8 9 8 9 9 9 9 9 9 11 11 8 7 6 6 6 6 6 6 5 4 6 7 6 6 7 7 8 8 7 10 15 19 17 13 21 35 33 27 25 24 27 27 25 26 24 24 27 25 25 26 27 27
22 20 21 21 20 22 24 25 22 20 23 22 17 18 16 13 16 18 31 41 26 10 9 9 8 6 5 6 5 6 7 5 6 7 6 7 8 8 9 8 8 10 8 10 14 11 7 8 7 6 6 6 6 6 5 4 5 5 5 5 7 7 8 8 7 10 11 14 21 18 16 29 36 30 24 22 26 28 27 25 24 27 27 25 24 25 27 28
22 20 20 20 19 19 22 24 22 24 27 22 20 26 19 14 18 21 35 42 21 7 9 8 9 8 5 5 6 5 5 5 6 6 6 6 6 6 9 8 8 9 8 9 12 10 7 8 6 6 6 6 5 5 4 4 4 4 4 5 6 6 7 8 8 10 11 15 24 22 16 26 35 32 28 25 24 26 28 26 25 26 25 24 24 24 26 28
24 21 21 20 18 18 19 19 22 26 26 23 26 27 19 18 23 29 40 38 16 7 10 9 9 8 6 6 6 5 5 5 5 5 5 5 5 5 6 7 7 8 9 9 9 9 8 7 6 6 5 5 5 4 4 4 3 3 4 5 5 6 7 10 11 12 13 18 24 21 15 21 31 32 28 26 23 22 25 27 26 25 25 24 24 24 26 28
25 22 22 21 20 19 19 17 19 24 25 24 23 19 18 22 25 32 37 23 11 10 10 11 10 7 6 6 6 6 5 5 5 5 6 5 5 5 6 9 9 9 10 10 10 9 7 7 7 6 5 5 4 4 4 4 3 4 4 5 7 8 9 12 13 15 17 20 21 17 12 14 25 31 26 22 21 19 21 26 25 24 25 24 23 23 24 27
24 23 22 22 21 18 18 16 17 22 22 20 22 24 27 28 26 29 26 13 11 12 9 11 11 7 7 6 6 6 5 6 6 5 6 6 6 6 7 9 10 12 14 12 11 10 9 8 7 6 6 5 5 5 5 4 4 4 4 6 9 11 13 14 16 19 20 19 16 12 11 12 19 27 24 20 19 18 18 21 22 22 22 22 22 21 21 24
23 22 21 21 21 19 16 14 16 21 20 22 31 34 32 34 31 22 17 13 13 10 7 10 9 8 9 7 7 7 6 8 7 6 6 6 7 7 6 8 9 11 14 12 12 12 12 10 7 7 7 6 6 6 6 6 5 4 4 7 12 14 15 18 18 18 20 20 14 9 11 13 14 19 19 18 17 16 16 16 18 20 20 20 21 21 21 22
20 19 19 17 19 20 16 14 19 23 27 35 42 40 35 39 33 18 14 14 11 9 9 9 8 9 9 9 9 8 8 9 7 6 7 8 9 8 7 8 8 9 11 12 12 12 15 16 11 8 7 6 6 6 7 6 4 5 3 5 10 12 14 17 18 18 19 22 16 10 12 14 16 19 18 16 15 15 15 15 15 18 19 19 21 21 21 21
20 18 17 12 14 19 17 20 27 32 39 45 46 46 42 36 26 16 15 13 9 10 10 8 9 9 9 9 9 8 9 10 8 7 8 9 11 10 8 8 8 9 10 12 12 10 13 15 10 8 7 6 7 6 6 6 5 5 3 4 7 9 11 15 17 16 15 19 17 13 14 15 15 16 14 12 14 15 15 14 14 17 19 20 22 22 21 21
22 19 14 9 17 24 21 27 37 40 44 46 51 56 46 28 19 17 14 11 10 11 10 9 10 10 10 9 9 9 9 10 9 8 8 10 10 9 9 9 8 9 9 11 12 10 12 12 8 7 8 6 7 7 6 6 6 5 4 4 4 5 8 12 15 13 13 19 18 13 15 15 13 13 10 9 14 16 15 15 16 18 19 21 23 22 21 21
35 31 16 11 28 34 26 30 42 47 44 45 56 59 41 24 17 14 11 11 11 10 12 13 10 9 11 10 9 9 9 10 9 9 9 10 11 9 8 8 8 8 8 9 10 9 11 12 8 7 8 6 6 6 6 5 6 6 5 5 4 5 6 8 12 13 15 20 17 12 15 17 18 18 12 9 14 18 16 16 18 20 20 21 22 22 21 22
57 53 28 16 32 37 29 33 44 49 46 47 59 57 40 30 23 16 14 15 14 15 18 19 14 10 10 10 9 8 8 11 10 9 10 11 11 10 8 8 8 8 7 7 10 8 9 12 10 6 7 7 5 6 8 6 4 5 5 4 5 7 8 8 11 14 17 19 16 14 16 16 20 21 14 10 14 18 17 15 18 20 19 19 21 22 22 23
71 70 42 21 31 38 35 38 40 44 48 53 60 54 39 33 26 21 20 19 18 19 20 18 15 12 10 10 9 7 8 10 10 10 11 11 11 10 8 8 8 7 7 6 8 8 8 12 12 7 6 7 6 7 9 8 6 5 5 5 5 6 8 9 8 10 17 19 17 17 18 18 21 21 15 12 12 15 18 16 17 19 17 16 20 23 24 24
78 75 46 21 32 41 38 41 41 44 52 55 54 46 37 32 27 23 22 19 18 18 17 17 15 13 13 10 9 8 7 8 9 10 10 9 10 9 8 8 8 7 7 6 7 8 8 12 14 10 6 7 9 8 8 8 7 6 6 7 6 6 7 8 7 7 12 17 18 19 20 19 21 18 14 16 14 11 15 17 17 18 16 15 17 20 23 24
83 76 46 18 26 38 38 42 43 43 47 45 40 37 34 31 27 24 22 20 19 18 17 17 15 14 14 12 12 10 8 8 8 8 9 8 9 9 8 7 8 7 7 7 7 7 8 11 14 12 9 9 9 8 7 7 7 7 7 7 7 7 7 8 11 9 7 10 13 17 23 23 19 13 11 16 19 13 13 17 17 16 15 15 17 19 20 21
81 73 51 20 17 33 42 43 39 40 45 41 35 33 30 28 24 21 21 19 19 19 19 19 18 17 14 12 12 10 9 9 7 7 9 7 7 8 7 6 7 7 7 8 7 7 8 10 13 13 10 9 8 6 6 6 5 6 7 6 6 7 7 9 15 16 9 8 10 13 21 23 17 14 13 14 18 17 13 16 17 15 13 14 18 20 19 19
78 72 57 27 22 42 52 48 40 39 40 37 32 29 26 24 21 20 20 19 18 17 18 19 19 19 17 14 12 11 9 9 7 7 8 8 7 6 5 6 6 7 8 8 7 9 11 11 14 15 12 10 8 6 6 6 6 6 7 6 6 6 5 6 13 19 13 9 11 14 19 18 12 16 21 18 19 18 13 13 15 13 12 13 17 21 21 21
83 78 61 35 36 50 54 52 46 41 38 33 26 23 23 22 20 20 19 17 17 16 16 17 17 17 18 15 12 11 10 10 9 7 6 7 7 6 5 5 5 6 8 8 8 9 11 13 16 19 18 16 14 13 10 7 6 7 7 6 5 6 5 4 7 12 15 15 14 15 22 23 14 12 16 15 15 16 14 14 14 13 12 11 13 19 23 22
84 76 61 46 45 48 46 43 39 36 33 28 24 21 21 20 17 18 20 19 18 17 18 20 17 15 16 17 19 17 12 10 10 8 8 8 6 5 5 4 5 6 6 9 11 9 10 14 15 18 21 19 19 19 17 13 8 7 8 7 6 5 5 6 6 8 17 22 18 15 21 25 19 10 7 8 10 13 16 15 13 12 12 10 11 18 22 22
84 75 62 52 48 44 41 36 32 35 36 37 42 35 26 27 25 24 28 28 24 21 22 26 25 24 27 30 34 33 27 22 16 9 8 7 5 7 8 7 7 5 7 16 17 9 10 15 14 16 19 18 20 20 16 13 10 9 9 7 8 7 5 7 8 8 14 18 21 25 25 22 21 15 9 8 7 10 18 18 12 13 13 10 11 17 20 22
90 80 62 57 60 55 48 43 41 48 50 53 58 48 38 39 36 31 31 30 27 24 24 27 29 35 39 39 41 42 40 40 34 25 21 20 20 21 21 18 13 8 11 21 20 14 15 17 14 15 17 16 18 17 12 12 11 9 9 9 8 8 6 7 9 9 11 12 15 24 25 23 24 19 14 14 10 12 23 23 15 15 16 11 11 17 22 25
87 78 61 61 69 63 56 55 52 53 53 51 49 44 42 43 39 37 35 30 27 27 29 31 31 35 39 39 42 47 47 48 46 41 40 40 39 38 33 27 20 15 16 17 16 17 21 20 14 13 14 12 12 12 10 11 11 8 8 9 8 8 7 8 9 9 13 15 13 17 23 25 24 16 14 20 20 18 23 21 13 12 15 16 18 23 26 26
81 77 68 68 73 68 63 60 55 53 52 50 49 46 44 41 36 34 32 29 31 29 31 37 38 37 39 37 41 48 51 52 51 47 44 43 44 44 43 38 28 24 24 19 14 15 19 22 17 11 13 12 9 10 9 9 10 9 8 7 7 8 8 8 9 7 11 16 13 14 22 26 21 11 6 12 17 16 14 13 11 11 14 18 23 27 29 27
84 82 81 82 83 75 66 60 55 53 50 50 53 49 44 45 44 38 32 30 33 31 32 40 43 41 40 39 41 44 43 44 46 43 41 44 47 46 46 43 35 30 30 25 19 13 15 24 20 12 15 15 9 9 9 8 9 9 9 9 7 7 8 7 8 7 8 13 13 13 20 25 22 14 7 7 10 12 12 13 12 11 16 25 27 27 28 29
87 87 90 95 90 76 70 65 58 58 57 53 55 52 47 50 50 48 43 32 28 32 34 38 43 43 41 42 42 40 36 36 38 37 36 41 45 43 42 40 36 35 34 29 25 18 15 22 20 15 21 22 14 11 11 9 10 10 10 11 9 8 9 7 7 8 8 11 14 15 17 20 21 16 11 9 9 11 16 19 14 9 15 26 31 31 30 30
88 89 90 98 96 79 71 66 60 63 62 54 55 57 51 45 41 46 55 46 31 33 36 35 41 50 55 54 47 39 35 35 34 34 34 37 38 36 37 36 33 35 34 29 29 24 17 20 22 22 27 25 16 13 12 10 13 14 12 11 11 11 11 9 8 8 7 7 11 17 21 22 22 18 13 11 9 8 12 16 14 9 8 12 19 27 30 29
Wind_Speed
18 18 18 17 17 17 17 17 17 18 17 17 17 17 17 17 17 17 18 18 18 19 18 18 18 20 19 19 21 22 23 23 23 24 29 28 19 16 14 10 6 9 11 7 8 15 18 21 20 18 18 19 18 19 19 19 16 10 3 0 2 3 3 4 3 7 4 4 5 10 14 10 9 14 19 20 20 25 20 19 25 23 27 31 31 37 37 35
19 19 19 19 18 18 18 18 19 19 19 19 18 18 18 18 18 17 18 18 18 18 18 18 18 18 19 19 20 22 23 24 26 29 27 19 15 17 16 15 12 11 13 11 12 17 20 21 20 19 20 20 18 19 19 18 17 8 4 1 3 4 6 9 11 9 7 2 4 12 18 13 10 14 17 14 16 21 15 17 28 28 30 32 35 38 36 37
20 20 20 20 20 19 19 20 20 20 20 20 19 19 19 19 19 18 18 18 18 18 18 19 18 18 18 19 19 21 22 25 28 24 14 8 14 17 16 16 14 14 17 16 14 17 19 19 18 20 21 19 18 21 18 18 18 10 7 2 4 7 6 11 14 10 6 10 6 7 17 16 13 16 15 12 15 16 12 18 26 28 34 36 37 37 37 37
19 19 20 20 20 20 20 21 21 21 21 21 20 20 20 20 20 20 19 19 18 18 18 18 18 18 17 18 19 18 20 22 19 12 6 1 10 13 13 13 14 16 18 19 16 18 19 18 18 21 20 16 19 23 16 16 14 9 8 4 7 10 8 20 12 19 12 12 4 6 12 15 15 16 15 16 14 10 14 27 31 32 37 38 38 38 37 36
18 19 20 20 20 21 21 21 21 22 22 22 22 21 21 20 20 20 20 19 18 18 18 18 19 17 16 17 17 17 16 10 5 4 6 3 4 8 10 10 12 14 16 19 18 20 21 21 21 23 19 13 15 16 15 20 16 9 10 13 14 14 8 12 7 22 19 7 1 5 7 13 16 13 17 22 12 9 22 35 38 38 39 40 40 38 37 37
19 20 20 21 20 20 21 21 22 22 22 22 23 22 22 22 21 20 20 19 18 18 18 18 18 17 16 15 16 15 8 4 2 2 5 3 3 4 6 6 9 11 14 18 21 22 21 23 23 20 16 10 11 10 14 21 16 8 10 17 21 18 7 3 10 14 23 14 7 5 9 15 14 8 16 22 14 20 34 39 40 39 40 40 40 38 37 37
20 20 21 21 20 21 21 21 22 22 23 23 23 23 23 22 22 21 20 19 18 18 18 18 18 18 17 14 16 14 10 16 12 5 7 6 3 5 6 7 8 9 14 18 22 24 20 23 23 19 12 8 11 12 17 22 18 11 6 13 21 19 12 11 14 8 20 19 12 8 8 11 11 5 7 14 18 32 39 38 39 39 39 38 38 38 37 36
20 20 21 21 21 21 21 22 22 22 23 23 24 23 23 23 22 22 21 19 18 18 18 18 17 18 17 14 14 13 16 19 9 5 12 14 13 15 14 13 11 11 14 17 24 26 20 21 22 20 10 7 12 13 18 19 15 13 10 13 18 20 20 20 17 11 15 19 19 13 8 9 13 9 10 21 31 38 39 38 39 39 38 37 37 37 37 36
21 21 20 21 21 21 22 22 22 23 23 23 24 24 24 23 23 22 21 20 18 17 18 17 17 17 17 16 11 10 15 11 5 4 9 12 16 20 19 17 14 13 15 16 23 25 20 20 21 21 12 12 15 14 18 13 8 11 14 15 11 15 21 23 19 15 15 18 25 16 8 11 14 11 9 25 37 38 39 38 38 38 37 36 35 36 37 36
22 21 21 21 21 21 22 22 22 23 23 24 24 24 24 24 23 23 22 21 18 18 18 17 17 16 16 16 7 7 12 8 5 9 7 6 11 17 19 17 15 14 16 16 21 26 22 20 20 22 17 15 15 14 17 13 11 14 15 13 8 10 16 21 20 19 18 17 26 16 7 13 17 10 5 25 39 37 39 37 36 37 36 35 33 35 37 35
23 22 22 21 22 22 22 22 22 23 23 24 23 23 24 23 23 23 23 21 18 18 18 17 17 16 16 15 9 10 9 5 6 8 6 7 9 12 12 13 14 13 16 16 19 25 24 21 20 19 14 12 14 14 16 19 20 21 18 13 11 12 11 17 18 17 15 14 25 18 9 13 16 8 7 29 39 37 38 36 35 34 33 33 32 34 36 35
24 24 23 23 23 23 23 24 23 23 24 23 23 23 22 22 23 23 24 21 18 18 18 17 16 16 16 16 23 19 9 7 10 10 9 10 9 6 4 8 14 13 14 16 17 20 22 22 22 19 14 11 11 9 11 20 24 22 17 11 11 14 10 10 11 10 8 11 29 22 10 11 9 7 17 33 36 37 37 35 34 34 33 33 31 34 35 34
24 24 24 24 24 24 24 25 25 25 25 24 23 22 21 21 21 23 24 21 18 18 18 17 15 16 14 18 30 26 18 16 15 15 15 15 12 8 6 9 15 15 13 15 16 17 18 19 21 23 21 14 9 8 10 16 19 17 12 7 7 9 8 5 9 11 8 11 29 20 7 8 6 9 23 31 33 37 35 32 33 32 33 34 33 34 34 32
25 25 24 24 25 25 25 25 26 26 25 25 24 22 21 20 20 21 23 21 19 18 18 16 14 14 13 22 32 27 21 20 18 19 17 16 16 15 14 12 15 17 15 15 16 17 18 18 20 21 21 18 14 14 13 11 11 10 8 5 5 4 5 8 7 13 10 14 26 15 4 8 6 10 25 29 32 37 32 31 32 30 32 32 32 36 35 32
25 25 25 25 25 25 25 26 26 26 26 26 24 22 21 20 19 20 21 19 19 19 18 14 12 11 13 25 32 19 12 15 21 25 20 18 20 19 18 15 15 17 16 17 17 17 18 17 20 18 16 18 16 12 7 6 6 5 6 4 4 3 6 12 10 12 9 11 22 14 3 7 6 10 27 29 28 34 31 31 32 30 31 31 31 36 35 32
26 26 25 25 25 25 25 25 25 26 26 25 24 22 20 19 19 20 19 19 19 19 17 10 8 8 8 16 19 10 9 16 19 21 22 23 24 22 19 16 16 17 17 18 17 17 18 17 19 18 16 13 9 6 4 5 5 4 5 4 5 6 7 10 6 11 7 5 13 11 3 6 4 8 26 29 26 31 30 29 31 30 33 31 31 35 35 32
28 27 26 25 25 25 25 25 25 25 25 24 22 21 19 17 17 18 18 18 18 17 13 6 2 5 13 17 14 13 15 18 16 14 19 23 23 21 18 17 19 20 20 19 18 19 19 18 15 13 13 8 5 5 4 5 5 5 5 5 7 8 7 6 4 9 9 8 7 8 6 6 6 9 23 29 26 27 27 27 30 30 33 32 31 34 34 33
29 28 27 26 25 25 25 24 23 23 25 23 21 21 18 13 15 17 15 14 11 9 9 7 5 2 13 17 12 14 14 15 15 14 17 21 22 21 19 19 20 21 22 18 18 20 18 16 11 6 6 7 6 7 6 7 7 7 7 5 7 9 8 7 5 7 10 12 8 8 8 8 10 11 18 28 26 24 26 28 30 31 34 34 31 33 34 34
28 28 28 27 26 25 25 23 21 21 23 21 18 16 11 15 16 10 7 7 4 4 4 8 14 7 8 10 11 16 13 11 15 15 16 19 21 20 20 21 22 21 18 11 12 18 14 9 8 6 6 8 9 9 9 9 10 12 11 8 7 7 8 10 7 10 11 10 8 9 9 9 12 11 12 24 27 23 26 28 28 29 33 34 32 34 35 34
28 29 29 28 26 25 24 23 20 18 19 19 18 12 9 17 13 4 8 12 14 14 17 17 21 22 20 21 22 20 14 9 16 16 14 16 19 20 22 22 21 18 12 6 8 16 15 6 7 9 8 10 11 12 12 11 13 14 13 10 9 7 8 11 8 12 13 9 8 9 10 8 11 11 11 21 25 19 21 24 25 28 32 34 32 33 36 36
29 29 29 29 27 24 23 21 18 14 13 14 16 14 12 14 8 6 16 21 22 22 27 30 28 31 31 30 30 25 18 9 15 16 13 18 20 18 19 20 14 9 9 8 9 14 14 8 9 11 11 12 12 13 14 15 15 14 13 11 9 8 8 10 8 14 14 9 9 11 10 8 10 12 12 17 17 14 18 20 22 27 31 34 34 33 36 36
30 29 30 30 28 25 22 20 16 11 9 9 12 13 14 15 9 12 18 19 26 26 28 34 34 37 38 35 36 33 25 17 14 17 16 20 20 15 15 15 9 5 9 10 8 9 10 9 12 13 12 13 13 13 15 16 15 12 10 9 9 7 7 9 6 12 13 7 7 11 10 7 8 12 13 14 12 13 22 24 24 28 30 34 35 33 35 35
29 29 30 30 29 26 21 18 14 9 8 9 12 14 14 15 12 15 16 14 27 30 28 33 36 40 40 37 38 34 25 20 16 19 23 22 21 19 14 11 9 7 9 10 9 7 7 9 12 13 12 13 14 13 13 13 12 10 9 8 8 9 8 7 5 8 12 9 8 11 10 6 7 10 12 16 15 14 20 25 27 30 30 34 38 36 36 36
27 28 29 29 30 26 21 17 10 6 9 9 11 14 12 13 13 19 18 10 16 22 23 28 32 39 42 36 33 31 26 23 19 19 26 26 22 20 14 10 9 9 9 12 14 12 8 9 14 15 14 14 14 14 13 10 8 11 13 11 8 11 12 10 8 7 9 10 11 11 7 5 7 9 9 13 16 14 16 19 21 29 33 34 37 37 37 38
26 27 28 29 29 27 23 14 6 8 11 6 10 10 9 13 15 19 17 6 8 13 16 17 22 33 37 29 25 27 23 24 27 24 25 29 25 16 13 13 9 8 12 14 14 12 11 12 16 17 15 16 14 13 14 11 7 10 14 16 14 13 13 13 13 8 4 6 8 10 6 5 6 11 10 10 11 12 15 16 16 24 31 33 35 37 38 39
26 25 26 27 27 29 23 10 7 14 13 6 8 9 8 13 16 17 10 4 5 7 7 10 14 15 19 24 27 25 14 19 32 31 25 28 30 20 11 10 8 8 12 12 9 6 9 14 15 15 16 17 15 12 14 14 8 7 10 16 19 18 16 15 15 8 3 5 8 9 6 3 5 9 12 12 12 13 15 15 17 22 29 32 34 37 39 40
26 24 25 26 25 26 23 14 14 17 13 11 12 11 11 13 14 13 5 2 4 6 6 9 11 5 10 24 30 22 6 12 26 32 31 27 29 27 14 8 8 9 9 7 7 5 8 15 16 15 15 14 13 11 12 14 10 7 9 14 19 20 19 18 15 9 3 4 9 11 8 4 5 7 11 14 14 14 15 15 16 20 27 33 34 35 39 41
27 24 23 24 22 20 20 21 20 15 12 12 12 11 14 12 12 10 2 2 4 2 5 7 8 3 8 22 33 25 9 8 14 25 38 32 26 26 14 10 10 10 11 7 6 7 8 13 15 16 15 10 10 11 12 14 11 9 10 11 14 17 18 17 13 8 5 4 6 10 10 5 4 6 9 13 14 14 15 16 14 16 25 33 33 33 37 41
28 25 23 24 22 17 16 20 18 14 11 11 12 14 14 11 10 6 1 3 5 1 3 8 7 4 10 20 29 26 16 11 8 19 37 34 29 24 12 14 13 8 13 12 8 8 8 14 16 15 13 9 9 11 13 14 11 9 11 10 10 12 14 14 11 7 6 5 5 10 12 6 4 6 7 9 11 12 13 15 14 17 25 32 34 35 37 42
29 26 23 24 24 20 18 18 12 11 15 15 14 14 13 10 5 2 4 4 4 2 4 6 6 7 11 13 16 20 17 15 11 17 31 30 31 28 16 19 17 8 9 12 12 11 11 16 16 12 11 10 10 11 13 14 12 9 10 10 10 10 8 7 7 6 6 5 5 10 15 11 5 6 8 9 10 12 11 12 14 17 24 30 34 36 38 42
30 28 25 23 23 22 23 18 7 7 14 16 15 14 12 7 2 3 5 3 4 3 4 3 6 9 13 12 11 15 15 14 11 10 17 18 21 21 14 13 13 7 7 8 10 13 14 15 12 9 12 12 11 11 12 13 12 9 7 7 7 6 5 4 3 5 6 6 5 8 12 11 7 6 8 10 12 14 12 12 15 17 22 29 34 36 37 40
29 28 26 23 21 20 23 20 10 8 14 13 13 14 8 2 5 6 4 1 3 6 6 7 9 10 13 13 11 12 13 11 11 9 10 11 10 13 13 9 7 7 8 7 8 10 12 13 10 10 14 15 10 7 8 10 10 9 6 6 6 4 4 4 4 4 5 7 6 7 9 9 6 5 11 14 14 16 15 15 20 22 25 31 34 36 37 39
29 29 27 23 21 20 22 20 11 8 10 7 9 9 3 4 6 7 6 4 4 4 2 5 8 8 12 12 9 11 12 10 11 11 11 12 10 11 15 14 10 8 7 7 7 7 7 10 13 12 10 14 13 5 5 7 8 10 8 6 6 5 5 6 5 4 4 5 8 11 9 6 5 4 12 18 17 18 20 22 28 31 34 36 38 39 38 38
28 29 27 23 22 20 19 17 9 4 4 4 6 5 6 8 4 6 9 8 9 13 13 8 7 8 10 12 10 10 10 10 13 12 10 12 11 9 13 16 16 10 5 6 7 7 7 7 11 13 7 10 15 10 5 5 7 9 8 6 6 5 5 5 4 4 4 4 7 11 8 5 4 5 11 16 18 22 26 28 31 35 40 41 40 41 40 39
28 26 25 25 22 17 14 11 6 3 4 5 5 5 9 8 2 3 6 7 8 11 15 17 13 12 10 10 13 14 11 9 13 13 11 11 11 9 11 14 17 14 7 6 5 7 11 8 8 14 12 9 11 13 10 7 6 6 6 6 8 7 5 3 4 4 3 4 5 6 5 4 5 7 9 10 14 20 24 27 27 27 36 40 38 40 41 40
28 23 21 21 17 13 8 12 9 8 10 8 6 7 8 6 3 4 4 4 7 7 11 16 12 9 8 6 9 16 14 10 13 12 10 11 12 12 11 11 16 17 11 8 4 5 8 7 8 14 16 15 12 12 14 12 5 4 7 10 8 7 5 2 3 4 3 5 5 4 5 3 3 5 10 12 8 14 18 20 18 20 30 34 34 38 40 40
29 25 21 13 9 13 7 13 12 13 15 10 8 8 5 6 8 9 8 11 16 13 11 10 8 7 7 6 7 12 15 11 12 11 8 10 11 13 14 11 16 21 17 11 5 5 6 4 8 14 15 19 19 13 14 15 9 4 6 7 3 3 5 2 2 3 4 5 4 6 7 4 3 3 9 13 7 12 15 14 12 17 25 27 29 36 38 40
27 27 22 8 10 19 8 9 11 16 16 9 10 12 7 8 11 13 15 17 19 15 10 7 5 8 8 6 7 9 12 10 10 10 9 9 8 13 16 12 14 20 22 19 9 5 6 4 7 14 14 16 18 13 11 13 14 9 5 3 4 5 6 4 3 4 5 5 4 6 8 6 5 4 9 14 10 11 16 15 13 16 21 24 30 36 39 40
24 25 17 2 13 21 9 4 13 18 14 8 9 9 7 10 14 19 23 22 17 13 9 7 6 8 10 10 9 9 10 10 11 10 8 8 7 14 18 13 13 18 22 21 12 5 6 4 4 10 12 13 12 10 8 8 10 10 7 6 4 4 5 7 5 3 4 3 3 6 7 5 5 5 10 14 13 12 15 15 14 15 21 27 31 35 39 41
20 19 12 1 11 17 11 5 13 15 9 9 10 8 8 10 13 19 25 21 14 11 9 8 9 10 11 13 12 10 10 10 10 11 9 8 9 13 18 16 13 15 20 23 16 8 6 5 4 6 8 10 9 8 9 8 8 9 9 10 8 4 3 5 6 6 5 3 3 5 5 5 5 5 8 10 11 14 15 16 15 16 25 33 35 38 41 43
18 12 10 5 12 20 20 14 9 10 7 10 11 10 12 13 14 17 24 24 18 16 15 14 13 12 11 13 13 11 9 12 10 9 8 10 9 8 14 19 15 13 16 18 16 10 6 5 4 5 6 7 8 10 14 14 11 10 9 10 10 6 4 4 5 6 7 6 6 5 4 6 6 5 7 8 10 12 13 13 12 15 27 33 35 42 46 47
14 10 17 17 17 25 24 13 7 7 7 10 12 13 15 15 14 16 22 24 20 18 18 16 14 14 12 12 13 13 10 10 12 10 7 10 12 8 12 19 21 18 14 11 14 14 8 4 5 7 7 7 8 11 18 19 16 12 11 11 10 7 6 5 4 5 6 5 5 5 5 5 6 6 7 9 9 10 14 15 11 16 28 31 32 41 47 50
13 16 29 27 20 23 17 6 6 7 7 12 17 19 20 17 13 14 17 18 15 13 13 12 13 14 12 11 13 14 11 10 13 13 11 9 10 12 16 19 19 20 15 9 11 14 10 5 5 6 6 8 10 8 15 20 17 12 11 11 10 8 8 7 5 4 4 5 5 5 5 5 5 6 5 6 6 6 15 22 18 18 26 30 32 39 42 46
17 24 33 27 20 17 12 4 5 6 7 13 16 16 20 19 15 16 16 15 14 11 11 12 13 13 12 13 14 15 13 11 11 13 13 10 9 11 16 22 20 15 12 9 8 12 10 6 6 5 4 6 8 7 8 16 15 9 8 11 12 13 11 9 7 4 3 7 8 6 5 5 6 7 11 11 7 3 5 16 21 20 23 27 30 38 43 44
17 19 22 23 22 17 12 9 9 8 9 14 15 15 18 17 18 18 16 15 15 12 9 11 15 16 13 12 13 15 15 13 11 12 12 10 11 14 14 19 21 14 12 15 15 15 11 7 8 8 7 9 9 6 5 8 10 8 9 12 14 16 15 10 6 6 6 7 8 7 5 5 6 11 18 19 13 8 6 8 18 20 23 26 25 33 44 44
11 9 11 16 20 17 13 13 12 8 7 9 10 12 14 11 13 17 17 14 13 13 11 10 13 13 11 13 13 12 13 13 14 13 11 11 9 9 19 22 16 13 16 20 19 13 7 7 12 13 11 9 8 7 5 5 7 10 13 15 14 15 15 11 6 7 6 4 6 6 6 5 6 10 17 19 15 12 7 6 13 16 20 24 21 28 42 44
7 5 7 10 12 12 13 15 12 7 9 10 6 8 15 13 11 15 16 12 12 14 12 8 10 12 13 16 13 11 14 16 16 13 10 12 12 14 26 31 19 20 26 21 19 11 4 7 14 18 16 12 9 8 9 9 9 12 16 17 16 15 14 11 9 9 6 4 7 8 4 5 7 6 10 13 13 11 7 7 10 13 17 20 22 27 39 43
7 9 13 12 9 7 9 14 16 13 14 14 8 8 15 15 11 11 12 12 12 12 9 7 8 12 15 15 11 10 15 14 12 14 14 14 16 17 21 22 15 19 25 17 18 9 2 5 11 15 18 17 14 12 12 12 11 11 15 18 17 17 18 15 13 10 8 6 9 9 6 6 7 6 7 7 7 7 5 6 11 15 18 20 21 25 33 39
11 13 15 13 9 10 13 18 21 18 14 13 8 8 13 14 13 12 9 10 11 9 7 8 10 13 14 14 10 8 11 11 10 13 15 16 17 13 12 16 14 17 20 13 10 7 3 3 6 10 13 17 18 17 16 15 14 12 13 17 18 18 19 18 15 11 9 9 9 9 9 10 8 6 8 9 9 7 3 2 7 11 14 22 24 23 26 32
13 12 12 12 11 14 16 17 17 13 11 11 8 7 9 12 14 13 11 11 11 8 7 8 12 13 12 11 11 9 9 12 13 14 15 15 14 10 7 8 10 15 18 16 9 3 6 5 5 6 7 10 17 19 19 19 17 14 12 12 16 18 18 18 16 13 10 9 8 9 10 9 6 6 10 12 9 6 2 3 3 5 10 23 27 25 24 27
17 16 14 11 9 10 11 11 11 9 8 8 7 7 10 11 13 15 14 16 15 10 8 8 10 11 10 10 11 12 14 15 15 17 19 17 14 13 11 8 10 15 15 14 12 4 5 5 4 4 2 3 7 13 20 20 17 17 18 14 13 14 13 13 15 14 12 10 9 8 8 7 6 6 8 10 7 5 4 6 8 7 8 16 23 27 28 28
18 16 14 9 6 7 8 8 8 8 8 7 6 8 11 11 13 14 11 13 16 14 13 12 8 6 7 9 10 13 18 21 22 24 26 25 24 23 23 22 19 16 13 12 12 9 5 4 5 4 1 2 4 8 15 18 15 15 16 13 10 8 6 6 9 14 15 14 10 7 7 7 6 6 7 9 9 7 7 7 12 15 15 13 16 25 32 35
Wind_Direction
335 333 331 329 326 322 320 318 315 315 314 313 314 312 311 310 309 308 307 307 308 307 306 305 303 302 302 304 302 300 302 302 301 295 282 275 264 243 222 210 214 203 208 206 185 192 192 192 195 195 205 218 227 237 243 244 226 190 150 129 232 245 214 201 243 279 278 113 152 157 135 123 121 125 130 135 136 141 148 149 146 141 139 145 148 147 147 148
334 332 329 327 325 321 320 317 317 316 314 315 314 313 312 311 310 308 308 309 309 310 309 308 306 304 305 305 303 302 302 304 303 295 285 278 254 227 211 207 214 222 225 221 201 195 196 195 197 199 209 222 225 232 239 237 226 184 122 230 210 237 228 183 187 235 272 242 187 155 140 136 140 142 146 145 140 148 150 133 134 131 132 141 146 149 151 151
333 331 328 326 324 322 321 318 318 317 315 315 313 314 313 312 311 309 309 309 309 311 310 309 308 307 308 308 307 305 306 309 305 301 303 265 222 204 201 205 212 226 228 228 219 204 203 202 199 199 210 224 229 235 230 225 229 182 145 204 227 236 254 236 204 163 206 226 213 151 138 136 146 154 159 156 143 148 141 126 130 131 137 143 148 152 153 153
332 329 326 325 324 323 321 319 318 316 315 314 313 313 312 312 311 310 310 309 310 310 309 309 307 308 310 309 309 310 311 314 304 302 355 284 202 188 197 206 216 231 228 230 224 208 211 212 205 203 210 222 231 238 236 226 218 159 161 186 230 229 230 256 225 133 182 235 192 146 136 135 157 170 162 152 149 150 138 136 140 142 145 148 151 155 156 157
330 327 325 325 324 322 320 318 317 316 315 313 313 313 311 312 310 310 310 309 311 309 309 307 306 307 308 309 309 311 316 325 308 304 360 28 157 175 193 208 224 231 225 224 216 205 214 221 216 210 210 224 231 234 247 232 202 163 195 188 217 232 199 255 223 145 176 220 170 171 149 140 152 177 168 158 162 159 149 145 146 148 150 152 154 157 158 159
329 327 326 327 324 322 320 318 316 315 314 312 312 311 311 311 308 310 308 309 311 309 309 305 306 305 305 311 307 307 307 273 240 339 348 21 83 160 176 208 221 220 219 214 209 206 216 225 223 221 214 222 238 239 259 245 216 201 204 190 214 229 166 213 244 172 152 154 215 182 126 138 147 197 181 171 174 151 150 150 148 151 154 155 156 158 161 162
330 329 328 327 325 322 319 317 315 313 313 311 311 310 309 309 308 308 307 309 309 309 308 304 305 303 304 309 304 302 270 263 265 237 258 261 230 230 234 250 235 220 219 208 207 206 216 226 221 226 227 216 232 241 259 261 251 249 224 200 211 209 164 173 232 194 140 157 184 147 127 157 162 178 134 134 141 139 144 148 148 152 154 157 158 161 164 165
332 331 329 328 325 322 319 316 314 312 311 309 308 308 307 306 306 306 305 306 307 309 306 303 305 301 304 304 306 303 268 272 290 228 241 240 235 250 256 254 246 233 226 213 207 202 212 229 219 220 230 234 234 232 244 254 256 252 244 226 207 197 181 179 209 202 171 167 157 159 170 170 160 143 104 110 124 133 140 145 149 152 154 159 162 163 166 168
333 332 329 328 325 323 320 317 315 312 310 308 307 305 305 304 303 303 302 303 305 306 302 302 303 299 302 301 307 293 268 285 324 234 230 234 236 245 248 249 250 239 231 222 210 203 215 232 223 216 222 242 243 243 249 248 244 243 242 236 209 198 191 184 195 200 206 175 157 170 161 153 153 142 135 126 128 135 141 146 150 153 157 163 165 167 168 169
333 332 329 327 324 323 320 318 316 314 311 308 306 304 303 302 301 300 299 299 302 302 299 299 299 299 298 297 299 270 275 304 277 231 213 224 229 236 242 243 247 239 227 225 215 208 217 229 223 220 228 246 249 251 256 257 261 265 266 260 244 228 200 183 183 191 215 185 159 165 144 149 149 149 150 127 131 137 141 147 152 155 161 166 169 170 170 172
335 333 330 327 325 323 320 319 317 315 313 310 308 305 303 301 300 298 295 296 298 298 296 295 297 295 289 285 259 247 287 312 238 227 225 219 214 231 239 227 231 233 222 223 220 212 215 225 228 229 227 238 257 264 264 268 279 288 296 299 287 275 231 189 183 191 209 175 158 157 140 144 145 171 155 130 136 141 143 148 153 159 163 167 172 171 173 176
335 333 331 328 325 323 321 319 318 317 314 311 309 305 303 301 298 296 293 292 295 295 292 292 294 289 287 272 251 249 289 294 239 235 240 221 208 221 231 214 221 230 225 221 222 218 218 225 236 247 244 232 245 265 276 273 281 293 298 307 298 294 275 196 179 215 244 159 160 153 135 154 153 172 146 138 142 142 144 150 155 162 164 170 174 172 176 179
334 333 331 328 326 324 322 320 318 317 315 313 311 308 306 301 297 295 290 289 290 290 287 290 291 285 279 262 260 269 289 283 252 238 232 222 221 224 228 229 227 229 229 223 225 223 221 226 237 251 257 256 252 263 286 276 272 279 277 271 273 289 284 218 174 209 243 169 164 147 127 175 168 163 147 145 146 142 146 152 158 163 165 172 174 173 179 183
334 333 331 328 326 324 323 322 319 317 315 313 311 311 308 301 297 293 288 288 288 285 285 287 286 279 262 262 275 286 287 279 260 240 225 222 232 230 226 228 229 229 227 227 232 231 226 227 235 247 255 259 270 277 287 280 264 266 271 260 252 281 283 271 221 190 203 191 171 141 110 176 174 161 146 149 151 145 148 153 159 165 167 173 173 173 179 186
334 333 332 329 327 325 325 324 321 318 315 312 312 313 309 303 298 291 287 286 285 284 284 283 278 267 259 275 286 296 283 260 247 236 219 219 234 230 221 220 226 229 228 230 236 240 241 234 229 236 247 253 264 275 281 284 282 269 271 272 243 234 253 272 251 187 189 189 164 135 114 167 170 161 147 156 158 147 151 155 161 167 168 173 173 173 178 186
334 334 332 330 328 326 327 326 323 320 315 313 314 312 309 304 296 291 288 283 281 281 282 284 286 266 260 282 288 289 262 243 243 240 221 219 233 232 220 219 225 227 229 232 235 239 246 248 237 227 230 241 247 251 264 276 284 263 241 246 235 212 224 257 232 177 169 141 145 129 130 155 156 169 152 159 165 152 152 158 163 167 169 174 174 173 178 185
335 335 334 332 329 326 328 328 326 322 317 316 317 315 312 306 299 297 291 282 277 277 275 270 305 277 260 266 271 267 256 244 246 242 222 218 226 228 218 217 224 224 225 228 232 234 236 243 244 228 221 224 211 211 234 240 248 261 243 240 247 234 225 229 180 172 156 134 154 129 125 158 163 176 161 162 168 159 155 161 166 167 168 174 175 175 179 185
334 333 334 333 331 328 329 331 330 325 320 319 322 319 316 325 319 309 301 288 271 267 269 233 181 302 266 251 260 278 264 239 234 225 219 215 215 221 217 216 222 219 216 219 223 226 227 230 232 233 217 210 209 204 209 218 222 241 240 230 241 244 249 237 193 187 160 143 168 145 143 179 170 179 170 163 169 166 161 164 168 168 169 174 176 176 181 186
333 333 333 333 333 330 329 333 333 328 323 324 329 321 324 351 338 320 343 331 253 217 272 215 188 197 269 255 264 283 278 243 225 215 214 210 207 215 216 217 224 217 206 205 210 211 213 219 220 228 226 210 208 209 214 218 221 235 242 232 225 227 243 246 211 178 163 149 168 160 166 188 171 182 175 161 171 174 166 167 170 169 168 173 176 177 182 186
333 333 332 332 333 332 331 334 334 330 328 329 340 349 358 359 347 343 360 314 268 258 272 256 222 225 253 270 271 274 284 245 205 203 206 199 194 201 210 219 225 217 203 196 195 199 204 218 222 217 221 219 212 214 222 227 229 240 249 246 237 227 232 241 208 165 160 155 174 170 175 188 165 172 172 162 171 172 165 168 171 169 168 174 177 178 183 188
334 334 333 333 333 333 333 334 334 333 330 331 346 359 354 355 356 329 327 302 278 266 263 264 254 245 250 261 263 268 290 272 200 198 198 189 187 190 202 214 221 207 198 212 204 196 203 219 227 219 220 226 222 215 218 227 233 237 248 258 255 245 246 245 199 162 165 166 177 171 169 185 166 163 168 166 171 171 170 172 173 172 171 175 179 180 184 189
336 335 334 333 332 334 335 335 335 326 324 335 348 354 345 343 342 318 322 303 286 277 260 259 258 254 253 253 254 260 276 277 231 210 193 185 190 187 185 197 216 208 187 208 219 199 205 221 223 220 218 224 231 224 216 223 232 237 244 255 260 262 271 263 215 163 169 170 173 171 167 185 172 160 162 167 174 174 177 178 177 177 173 175 181 182 184 186
338 337 336 335 333 334 336 337 331 316 327 343 347 353 346 337 334 322 319 298 289 284 261 253 250 247 247 243 245 248 253 259 248 219 196 187 193 192 186 187 203 215 196 200 216 214 214 214 216 225 224 220 228 231 224 222 226 237 242 243 251 256 267 271 238 178 178 170 164 166 168 184 176 163 165 174 177 175 181 184 183 182 180 178 182 184 184 185
340 339 337 336 335 333 336 337 323 303 322 341 351 353 347 338 340 333 323 290 284 283 262 255 246 240 240 236 234 234 235 241 245 227 199 190 195 195 199 205 195 207 217 207 209 224 238 208 200 218 230 223 224 227 228 226 219 227 235 241 247 246 251 259 252 224 185 168 162 155 163 202 181 166 167 173 175 176 184 192 192 186 184 183 183 185 186 186
340 340 337 337 336 333 335 340 323 300 307 340 360 340 335 342 338 334 326 283 269 276 265 254 237 239 241 233 222 217 223 233 236 233 207 194 198 196 200 212 207 205 216 218 214 220 237 228 206 207 220 224 224 222 220 223 226 225 226 234 248 252 251 253 255 251 173 170 173 149 157 238 194 167 168 170 173 180 183 196 208 191 182 183 183 186 188 189
338 338 336 335 336 335 334 340 331 314 304 310 323 299 309 338 333 331 327 283 276 260 234 206 207 232 226 208 204 202 214 234 228 229 221 203 199 200 204 202 209 217 208 218 231 218 218 227 225 213 209 214 222 226 219 217 226 233 218 220 237 252 258 260 260 253 169 179 189 163 155 223 209 176 176 177 178 185 182 191 212 198 183 182 183 187 189 190
335 335 335 331 335 339 334 328 327 325 322 314 306 296 308 327 334 338 331 261 268 220 178 170 185 205 193 188 185 181 201 227 216 220 222 213 198 199 212 199 196 221 214 209 224 218 203 213 226 229 216 209 215 223 219 215 222 235 222 211 220 236 251 261 265 258 214 172 186 187 168 156 207 199 183 180 181 189 187 189 206 199 185 184 185 188 190 190
333 333 334 328 330 340 330 318 320 331 336 323 321 319 315 324 337 339 324 270 299 188 145 167 191 210 180 176 175 183 205 180 184 209 213 215 204 195 205 216 205 208 213 223 221 211 213 212 217 226 227 218 209 211 214 217 225 232 232 225 218 223 235 248 260 264 243 209 196 193 174 154 222 217 186 179 181 191 193 192 200 193 182 183 188 191 192 191
329 330 334 326 323 328 313 300 305 326 335 326 329 325 316 325 333 328 213 259 295 273 150 173 188 196 170 166 177 197 217 205 194 195 198 209 212 204 207 217 223 222 210 224 236 219 224 223 216 217 228 229 209 204 208 217 226 227 233 244 242 232 229 233 243 259 254 242 226 195 180 177 226 209 183 182 187 190 191 193 198 192 185 186 191 195 192 191
325 326 330 325 321 321 306 292 294 326 333 323 317 317 320 325 320 267 207 242 273 213 134 153 175 190 180 169 183 199 211 228 233 185 186 198 205 209 217 210 219 254 226 222 234 235 241 238 229 220 221 225 217 206 203 216 226 222 227 242 254 253 242 234 229 234 253 251 226 199 188 188 214 209 184 184 189 187 183 187 191 191 191 193 194 195 193 191
322 322 323 321 321 315 303 301 313 318 307 297 292 306 325 327 254 218 213 232 275 217 147 165 183 178 185 186 189 195 200 222 233 194 186 191 193 200 210 204 206 236 245 234 230 231 238 243 244 234 225 221 218 210 201 210 221 221 218 222 241 261 264 269 246 214 232 241 223 213 207 202 215 217 194 188 185 184 182 181 185 187 191 194 194 194 194 192
319 318 317 315 313 301 291 299 315 290 283 282 288 305 323 282 219 229 233 262 255 209 177 196 194 177 192 201 193 191 196 209 223 216 189 183 194 195 198 203 187 194 224 232 228 226 228 234 241 244 237 227 220 208 199 206 215 220 219 206 212 231 241 249 248 215 224 237 219 218 229 223 225 208 189 190 187 185 187 185 187 189 190 193 195 196 196 194
319 317 314 309 303 293 288 297 303 276 276 287 298 305 291 238 225 206 222 251 267 286 298 211 204 194 194 202 209 196 194 203 213 221 199 185 199 198 199 207 194 191 211 213 221 230 229 229 230 237 237 220 217 207 187 200 205 210 212 202 190 191 213 228 242 236 225 236 223 218 226 226 241 221 186 192 196 192 190 190 191 192 193 196 197 199 199 196
319 318 314 307 299 291 286 290 292 266 275 296 302 290 219 236 233 175 206 238 278 307 310 296 288 266 216 200 210 203 199 203 204 219 210 187 199 202 197 205 206 206 210 209 215 216 226 229 215 222 223 201 206 208 208 198 198 208 205 201 198 190 206 214 217 230 224 238 231 223 219 193 206 217 191 195 201 194 190 192 195 192 192 196 197 197 197 197
322 319 312 305 301 299 282 260 254 264 261 262 276 245 216 230 237 202 226 232 251 278 289 291 295 286 254 211 203 204 210 208 198 215 220 193 200 204 190 197 206 208 202 207 212 205 225 237 205 212 221 212 198 195 210 221 211 210 197 206 215 195 193 209 214 223 224 239 246 230 218 181 190 220 225 221 203 191 189 192 196 191 187 189 189 190 192 195
327 326 314 305 308 319 281 228 238 250 227 227 244 230 230 243 249 265 276 268 265 289 308 298 283 270 266 240 210 202 205 211 197 206 221 203 204 208 200 192 197 207 209 201 204 201 216 230 207 207 215 223 211 183 197 216 211 187 202 217 216 191 191 214 237 253 240 230 237 233 234 213 192 230 252 253 206 179 187 190 191 183 176 178 180 182 188 192
335 337 325 313 336 345 286 218 233 235 213 213 237 236 249 269 262 270 288 295 300 315 328 308 293 287 266 245 236 204 192 201 202 201 207 205 206 204 207 201 190 202 213 211 221 220 213 232 216 207 207 216 220 203 199 211 207 186 204 207 192 223 234 204 213 245 235 235 234 231 239 225 194 213 239 244 210 167 182 184 176 169 165 169 176 181 186 190
339 339 324 318 8 350 314 205 208 211 207 219 247 251 266 272 265 277 291 298 306 316 315 296 293 303 288 268 267 229 197 190 199 208 207 206 211 196 200 211 195 196 207 213 226 222 213 244 228 215 207 203 212 216 206 209 209 212 230 192 162 220 228 205 216 213 209 234 243 241 245 218 201 201 206 223 213 167 176 181 173 167 165 169 176 182 186 188
343 337 313 326 18 358 359 200 209 205 212 236 246 254 264 266 267 274 283 289 296 300 295 284 276 289 294 290 287 267 239 214 199 206 213 205 202 192 193 204 201 194 197 205 219 224 212 233 243 229 212 186 192 211 205 196 199 211 241 244 222 219 199 193 215 207 187 220 226 236 249 233 222 207 191 207 208 183 180 182 179 173 171 173 175 181 186 187
341 325 291 279 357 345 357 313 230 208 225 247 242 260 267 271 273 269 272 276 279 278 276 280 279 280 289 291 294 292 283 267 224 207 212 204 193 191 192 196 205 201 192 196 208 218 213 220 247 258 227 193 189 198 190 178 182 195 216 230 232 234 203 188 203 207 189 194 221 233 242 245 246 224 202 206 206 201 193 182 181 179 177 179 181 184 186 188
330 308 273 280 318 321 333 328 260 220 243 248 245 263 266 271 277 275 276 278 277 278 280 283 277 273 281 288 295 298 297 297 271 232 213 202 202 202 193 192 197 203 196 194 200 207 209 210 230 265 253 219 203 186 179 180 186 189 199 221 226 218 218 215 214 215 200 195 216 221 232 254 254 238 234 229 210 206 198 185 181 178 179 182 185 186 189 192
316 284 275 283 310 323 326 321 273 246 249 248 252 260 263 265 265 268 276 276 275 277 280 280 274 273 274 270 281 285 280 292 290 275 252 218 213 212 200 194 192 197 206 203 194 195 200 198 214 244 255 251 232 191 178 181 189 192 196 212 223 215 209 217 219 210 205 211 219 220 237 254 250 238 239 242 227 199 185 183 178 177 182 185 187 188 190 194
300 287 288 295 317 321 310 288 265 261 248 252 254 257 263 267 268 273 276 273 272 273 272 273 272 273 276 272 275 280 276 278 279 277 283 269 234 215 210 204 195 194 201 210 193 184 190 199 202 229 263 277 271 226 182 180 186 197 200 197 210 222 215 220 228 196 189 209 209 224 244 230 234 255 257 257 254 204 183 183 180 181 185 183 183 188 191 192
300 294 293 305 325 309 281 257 269 263 257 262 263 266 270 272 272 271 270 268 270 271 265 270 270 266 274 278 273 273 275 275 276 278 282 290 295 277 237 215 210 205 194 199 190 172 182 198 179 191 233 252 271 266 200 186 186 195 199 190 200 215 217 226 236 218 214 224 206 203 237 224 211 241 264 277 289 300 193 180 176 182 191 190 185 184 188 190
306 296 289 304 318 299 265 251 259 260 270 274 273 272 268 263 260 266 280 285 280 283 285 285 285 279 281 295 293 284 276 266 268 279 283 287 296 304 280 232 221 218 202 200 191 173 180 193 177 188 209 210 226 241 203 185 188 192 193 191 196 207 214 219 226 227 229 233 222 205 220 242 206 206 238 260 268 274 277 191 176 178 189 199 193 179 182 188
303 297 292 306 315 309 293 285 283 280 286 291 291 285 282 278 278 293 311 309 297 310 324 326 322 318 330 346 336 315 305 300 290 275 273 285 283 299 317 307 280 262 248 222 197 181 185 188 188 197 202 204 220 229 212 190 193 190 189 195 198 204 212 208 205 228 217 204 242 229 198 230 232 202 219 241 248 247 251 202 183 177 179 194 196 179 180 186
286 284 296 311 319 316 312 313 320 333 321 315 316 302 303 307 307 309 310 302 308 324 329 335 355 3 2 355 341 321 332 341 329 312 303 313 322 328 328 325 313 294 282 246 199 190 207 189 193 199 201 206 218 229 232 227 217 197 185 192 201 206 215 216 212 220 203 185 250 249 191 210 252 237 219 231 246 241 218 197 191 166 157 181 198 188 180 182
277 281 290 300 306 302 309 314 317 322 316 308 302 297 299 297 295 301 305 303 307 322 325 313 344 5 357 350 345 327 336 349 345 341 348 342 338 339 331 324 320 319 307 260 199 182 184 186 192 196 202 211 221 234 239 238 241 223 192 188 197 203 211 222 226 216 189 198 238 235 207 215 243 256 232 218 232 231 204 201 204 176 150 161 182 182 176 176
279 280 288 299 298 293 299 303 304 306 306 305 302 294 292 290 287 285 292 302 299 306 318 309 326 350 349 346 349 335 334 341 333 338 345 334 328 334 326 315 320 342 335 293 222 171 140 185 193 195 202 208 216 232 244 246 252 248 213 193 194 202 206 214 229 230 213 220 232 220 216 222 221 239 257 246 222 210 170 124 216 209 165 155 165 170 172 175
271 274 291 306 300 293 297 299 301 301 300 302 299 294 301 307 309 305 296 293 290 294 312 311 313 324 332 336 334 320 318 325 321 322 326 323 324 330 323 307 314 332 332 313 291 186 169 199 205 206 216 207 206 218 234 245 252 257 250 219 200 201 203 204 214 228 235 239 235 217 224 241 228 213 249 257 232 200 170 110 181 218 155 149 160 167 172 178
267 271 283 294 292 295 303 305 304 300 296 298 300 311 323 324 322 320 308 295 294 300 315 312 305 311 318 323 321 313 314 316 311 308 308 302 296 296 288 283 302 313 314 310 309 285 192 187 176 178 230 232 210 213 221 233 247 253 255 249 221 205 203 202 201 205 216 230 235 225 225 247 249 215 232 256 244 209 201 162 166 195 177 154 158 165 170 177
280 284 288 291 288 295 299 295 294 290 283 285 289 298 309 316 319 322 318 306 307 312 311 308 316 335 323 314 317 315 313 310 303 300 300 292 283 279 274 273 281 286 284 293 303 292 238 170 138 128 142 259 277 254 224 215 227 243 244 248 249 239 235 232 207 197 203 211 217 221 217 216 215 200 210 237 246 247 248 215 192 201 212 205 185 177 177 182